Flight Information

DEPARTURE
SPOKANE, WA
Elevation:
2385
Runways:
8/26 - 8199x150 - ASPH-G
3/21 - 11002x150 - ASPH-CONC-E
ATIS:
124.325
Clearance Delivery:
127.55
Ground:
121.9
Tower:
SPOKANE TOWER 118.3
DESTINATION
,
Elevation:
TPA:
1000 (est.)


6489.1 NM69° True-19° Var49° HDG

Flight Plan:
(click to file on line)

1. Type
2. Aircraft Identification
3. Aircraft Type / Special Equipment
4. True Airspeed
kts
5. Departure Airport
(ICAO code)
6. Arriving Airport
(ICAO code)
7. Cruising Altitude
ft
8. Alternate Airport
(ICAO code)
9. Route of Flight
10. Remarks


00:00:00 Departure ATIS: Destination ATIS:

Clearance Limit:
Route:
Altitude: Expect in minutes
Frequency:
Transponder: (7500 Hijack / 7600 Lost Comms / 7700 Emergency)


KGEG 010353Z 23003KT 10SM FEW100 18/06 A3027 RMK AO2 SLP244 T01780061
Time: 2020-10-01T03:53:00Z
1601526436
Winds: 230 @ 3 kts
Visibility: 10.0 sm
Clouds (AGL): FEW 10000
Temperature: 17.8 C
Dew Point: 6.1 C
Pressure: 30.268702 in Hgbr


Notes:

Data extracted from FAA Digital Chart Supplement. Effective: 0901Z Thursday, Sep 10, 2020 to 0901Z Thursday, Nov 5, 2020
Current ATIS data is provided courtisy of PilotEdge.